Hourly Weather Мапири

Today, 2 March, Tuesday

Time Temperature Precipitation Wind Pressure Humidity
00:00 +24°C° 0 mm 1 mps 742 mmHg 97%
01:00 +23°C° 0 mm 1 mps 742 mmHg 98%
02:00 +23°C° 0 mm 1 mps 741 mmHg 98%
03:00 +23°C° 0 mm 1 mps 741 mmHg 99%
04:00 +21°C° 0 mm 0 mps 741 mmHg 99%
05:00 +21°C° 0 mm 0 mps 741 mmHg 99%
06:00 +23°C° 0 mm 1 mps 741 mmHg 98%
07:00 +24°C° 0 mm 1 mps 742 mmHg 96%
08:00 +25°C° 0 mm 1 mps 743 mmHg 94%
09:00 +26°C° 0.3 mm 1 mps 743 mmHg 90%
10:00 +28°C° 0.3 mm 1 mps 743 mmHg 85%
11:00 +29°C° 0.3 mm 1 mps 744 mmHg 80%
12:00 +29°C° 1.5 mm 1 mps 743 mmHg 84%
13:00 +29°C° 1.5 mm 1 mps 742 mmHg 88%
14:00 +29°C° 1.5 mm 1 mps 741 mmHg 91%
15:00 +29°C° 0.6 mm 1 mps 740 mmHg 89%
16:00 +29°C° 0.6 mm 1 mps 740 mmHg 86%
17:00 +29°C° 0.6 mm 1 mps 739 mmHg 83%
18:00 +28°C° 0.9 mm 1 mps 740 mmHg 88%
19:00 +27°C° 0.9 mm 1 mps 741 mmHg 93%
20:00 +25°C° 0.9 mm 1 mps 741 mmHg 97%
21:00 +25°C° 0.2 mm 1 mps 742 mmHg 98%
22:00 +25°C° 0.2 mm 1 mps 743 mmHg 98%
23:00 +24°C° 0.2 mm 1 mps 744 mmHg 98%

Tomorrow, 3 March, Wednesday

Time Temperature Precipitation Wind Pressure Humidity
00:00 +24°C° 0 mm 1 mps 743 mmHg 99%
01:00 +24°C° 0 mm 1 mps 743 mmHg 99%
02:00 +24°C° 0 mm 1 mps 743 mmHg 99%
03:00 +23°C° 0 mm 1 mps 743 mmHg 99%
04:00 +23°C° 0 mm 1 mps 743 mmHg 99%
05:00 +23°C° 0 mm 1 mps 743 mmHg 99%
06:00 +24°C° 0 mm 1 mps 743 mmHg 98%
07:00 +24°C° 0 mm 1 mps 744 mmHg 97%
08:00 +24°C° 0 mm 1 mps 745 mmHg 97%
09:00 +26°C° 0 mm 1 mps 745 mmHg 88%
10:00 +28°C° 0 mm 1 mps 745 mmHg 79%
11:00 +30°C° 0 mm 1 mps 745 mmHg 70%
12:00 +31°C° 0.6 mm 1 mps 744 mmHg 68%
13:00 +31°C° 0.6 mm 1 mps 743 mmHg 67%
14:00 +32°C° 0.6 mm 1 mps 742 mmHg 65%
15:00 +32°C° 1.1 mm 1 mps 742 mmHg 71%
16:00 +31°C° 1.1 mm 1 mps 741 mmHg 76%
17:00 +28°C° 1.1 mm 0 mps 740 mmHg 82%
18:00 +27°C° 0.3 mm 0 mps 741 mmHg 86%
19:00 +25°C° 0.3 mm 0 mps 741 mmHg 90%
20:00 +24°C° 0.3 mm 0 mps 742 mmHg 94%
21:00 +26°C° 0.1 mm 1 mps 743 mmHg 95%
22:00 +25°C° 0.1 mm 1 mps 743 mmHg 95%
23:00 +25°C° 0.1 mm 1 mps 744 mmHg 96%

Day after tomorrow, 4 March, Thursday

Time Temperature Precipitation Wind Pressure Humidity
00:00 +25°C° 0.2 mm 1 mps 744 mmHg 96%
01:00 +25°C° 0.2 mm 1 mps 744 mmHg 96%
02:00 +24°C° 0.2 mm 1 mps 744 mmHg 97%
03:00 +24°C° 0 mm 1 mps 744 mmHg 97%
04:00 +24°C° 0 mm 1 mps 744 mmHg 97%
05:00 +24°C° 0 mm 1 mps 743 mmHg 97%
06:00 +24°C° 0.3 mm 1 mps 744 mmHg 97%
07:00 +24°C° 0.3 mm 1 mps 745 mmHg 98%
08:00 +24°C° 0.3 mm 1 mps 745 mmHg 98%
09:00 +24°C° 0.2 mm 1 mps 746 mmHg 97%
10:00 +25°C° 0.2 mm 1 mps 746 mmHg 96%
11:00 +25°C° 0.2 mm 1 mps 746 mmHg 95%
12:00 +26°C° 1.5 mm 1 mps 745 mmHg 94%
13:00 +27°C° 1.5 mm 1 mps 744 mmHg 93%
14:00 +28°C° 1.5 mm 1 mps 743 mmHg 92%
15:00 +28°C° 1.4 mm 1 mps 742 mmHg 92%
16:00 +28°C° 1.4 mm 1 mps 742 mmHg 92%
17:00 +28°C° 1.4 mm 1 mps 741 mmHg 93%
18:00 +27°C° 0.2 mm 1 mps 741 mmHg 95%
19:00 +26°C° 0.2 mm 1 mps 742 mmHg 97%
20:00 +25°C° 0.2 mm 1 mps 742 mmHg 99%
21:00 +25°C° 0.1 mm 1 mps 743 mmHg 99%
22:00 +25°C° 0.1 mm 1 mps 743 mmHg 99%
23:00 +25°C° 0.1 mm 1 mps 744 mmHg 99%

5 March, Friday

Time Temperature Precipitation Wind Pressure Humidity
00:00 +24°C° 0.1 mm 1 mps 743 mmHg 99%
01:00 +24°C° 0.1 mm 1 mps 743 mmHg 99%
02:00 +24°C° 0.1 mm 1 mps 743 mmHg 99%
03:00 +24°C° 0 mm 1 mps 743 mmHg 99%
04:00 +24°C° 0 mm 1 mps 743 mmHg 99%
05:00 +23°C° 0 mm 1 mps 743 mmHg 98%
06:00 +24°C° 0 mm 1 mps 743 mmHg 97%
07:00 +24°C° 0 mm 1 mps 744 mmHg 96%
08:00 +25°C° 0 mm 1 mps 744 mmHg 95%
09:00 +26°C° 0.2 mm 1 mps 744 mmHg 93%
10:00 +26°C° 0.2 mm 1 mps 745 mmHg 90%
11:00 +27°C° 0.2 mm 1 mps 745 mmHg 87%
12:00 +28°C° 1.1 mm 1 mps 744 mmHg 85%
13:00 +29°C° 1.1 mm 1 mps 743 mmHg 83%
14:00 +30°C° 1.1 mm 1 mps 742 mmHg 81%
15:00 +30°C° 1.2 mm 1 mps 741 mmHg 81%
16:00 +30°C° 1.2 mm 1 mps 741 mmHg 80%
17:00 +28°C° 1.2 mm 0 mps 740 mmHg 79%
18:00 +27°C° 0.2 mm 0 mps 741 mmHg 85%
19:00 +25°C° 0.2 mm 0 mps 741 mmHg 90%
20:00 +24°C° 0.2 mm 0 mps 742 mmHg 96%
21:00 +23°C° 0.4 mm 0 mps 742 mmHg 96%
22:00 +23°C° 0.4 mm 0 mps 743 mmHg 96%
23:00 +23°C° 0.4 mm 0 mps 743 mmHg 97%

6 March, Saturday

Time Temperature Precipitation Wind Pressure Humidity
00:00 +22°C° 0 mm 0 mps 743 mmHg 97%
01:00 +22°C° 0 mm 0 mps 743 mmHg 98%
02:00 +22°C° 0 mm 0 mps 743 mmHg 98%
03:00 +22°C° 0 mm 0 mps 742 mmHg 98%
04:00 +22°C° 0 mm 0 mps 742 mmHg 98%
05:00 +21°C° 0 mm 0 mps 742 mmHg 98%
06:00 +22°C° 0 mm 0 mps 743 mmHg 96%
07:00 +23°C° 0 mm 0 mps 743 mmHg 95%
08:00 +23°C° 0 mm 0 mps 744 mmHg 93%
09:00 +26°C° 0 mm 0 mps 744 mmHg 81%
10:00 +30°C° 0 mm 1 mps 744 mmHg 68%
11:00 +33°C° 0 mm 1 mps 745 mmHg 56%
12:00 +32°C° 0.6 mm 1 mps 744 mmHg 63%
13:00 +32°C° 0.6 mm 1 mps 743 mmHg 69%
14:00 +32°C° 0.6 mm 1 mps 742 mmHg 76%
15:00 +31°C° 1.4 mm 1 mps 741 mmHg 78%
16:00 +31°C° 1.4 mm 1 mps 741 mmHg 81%
17:00 +30°C° 1.4 mm 1 mps 741 mmHg 83%
18:00 +29°C° 0.3 mm 1 mps 741 mmHg 87%
19:00 +25°C° 0.3 mm 0 mps 742 mmHg 91%
20:00 +23°C° 0.3 mm 0 mps 742 mmHg 94%
21:00 +23°C° 0.5 mm 0 mps 742 mmHg 96%
22:00 +25°C° 0.5 mm 1 mps 743 mmHg 97%
23:00 +25°C° 0.5 mm 1 mps 744 mmHg 98%

7 March, Sunday

Time Temperature Precipitation Wind Pressure Humidity
00:00 +24°C° 0.5 mm 1 mps 743 mmHg 99%
01:00 +24°C° 0.5 mm 1 mps 743 mmHg 99%
02:00 +22°C° 0.5 mm 0 mps 743 mmHg 99%
03:00 +22°C° 0.1 mm 0 mps 743 mmHg 99%
04:00 +22°C° 0.1 mm 0 mps 743 mmHg 98%
05:00 +22°C° 0.1 mm 0 mps 742 mmHg 98%
06:00 +22°C° 0.3 mm 0 mps 743 mmHg 98%
07:00 +23°C° 0.3 mm 0 mps 744 mmHg 97%
08:00 +23°C° 0.3 mm 0 mps 744 mmHg 97%
09:00 +26°C° 0 mm 0 mps 745 mmHg 84%
10:00 +29°C° 0 mm 0 mps 745 mmHg 71%
11:00 +31°C° 0 mm 0 mps 745 mmHg 58%
12:00 +31°C° 1 mm 0 mps 744 mmHg 62%
13:00 +31°C° 1 mm 0 mps 743 mmHg 67%
14:00 +30°C° 1 mm 0 mps 742 mmHg 72%
15:00 +31°C° 1.5 mm 1 mps 742 mmHg 79%
16:00 +30°C° 1.5 mm 1 mps 741 mmHg 86%
17:00 +29°C° 1.5 mm 1 mps 740 mmHg 94%
18:00 +28°C° 0.5 mm 1 mps 741 mmHg 94%
19:00 +25°C° 0.5 mm 0 mps 741 mmHg 95%
20:00 +24°C° 0.5 mm 0 mps 742 mmHg 95%
21:00 +23°C° 0.1 mm 0 mps 743 mmHg 96%
22:00 +23°C° 0.1 mm 0 mps 743 mmHg 96%
23:00 +23°C° 0.1 mm 0 mps 744 mmHg 96%
Show more